[[{"header":{"parameterUnit":"m.s-1","parameterCategory":1,"la1":30.2991,"la2":30.254,"lo1":-89.0895,"lo2":-89.0444,"dy":0.0017,"dx":0.0017,"nx":28,"ny":28,"refTime":"2024-03-09T09:00:00:Z","depth":0,"parameterNumber":2,"parameterNumberName":"U-component_of_WINDS"},"data":[0,0,0,0,0,0,0,0,0,0,0,0,0,0,0,0,0,0,0,0,0,0,0,0,0,0,0,0,0,0,0,0,0,0,0,0,0,0,0,0,0,0,0,0,0,0,0,0,0,0,0,0,0,0,0,0,0,0,0.5321,0.5322,0,0.535,0.535,0.5351,0.5361,0.5361,0.5361,0.5361,0.5391,0.5392,0.5393,0,0,0,0,0,0,0,0,0,0,0,0,0,0.5277,0.5278,0.5321,0.5322,0.5322,0.535,0.535,0.5351,0.5361,0.5361,0.5361,0.5361,0.5391,0.5392,0.5393,0,0,0,0,0,0,0,0,0,0,0,0,0,0.53,0.5278,0.5321,0.5331,0.5332,0.535,0.535,0.5351,0.5361,0.5361,0.5361,0.5361,0.539,0.5392,0.5393,0.5404,0,0,0.5397,0.5398,0,0,0,0,0,0,0,0,0.5299,0.5302,0.5329,0.533,0.5331,0.5352,0.5346,0.5369,0.5361,0.535,0.5361,0.5361,0.5378,0.538,0.5386,0.5406,0.5407,0.5397,0.5398,0.5398,0.5399,0,0,0,0,0,0,0,0.5297,0.5301,0.5333,0.5329,0.5331,0.5334,0.5337,0.535,0.5365,0.5351,0.5352,0.5355,0.5379,0.5385,0.5387,0.5407,0.5397,0.5398,0.5399,0.54,0.5439,0.5439,0,0,0,0,0,0,0.5294,0.5299,0.5332,0.5334,0.5314,0.5335,0.5338,0.5345,0.5364,0.5367,0.5355,0.5355,0.5383,0.5385,0.5388,0.5403,0.5398,0.54,0.54,0.5439,0.5439,0.5439,0,0,0,0,0,0,0.5293,0.5297,0.5331,0.5317,0.5321,0.5336,0.5344,0.5346,0.5352,0.5368,0.537,0.5359,0.5383,0.5386,0.54,0.5405,0.54,0.5402,0.5439,0.5439,0.5439,0.5434,0,0,0,0,0,0,0.5292,0.5296,0.53,0.5317,0.5322,0.5342,0.5344,0.5347,0.5354,0.5355,0.5372,0.5374,0.5383,0.5398,0.5402,0.5406,0.5403,0.5438,0.5439,0.5439,0.5433,0.5434,0.5434,0,0,0,0,0,0.529,0.5297,0.53,0.5304,0.5327,0.5342,0.5345,0.5355,0.5355,0.5359,0.5369,0.5374,0.5404,0.54,0.5404,0.5409,0.5438,0.5439,0.5439,0.5433,0.5434,0.5434,0,0,0,0,0,0,0.5281,0.53,0.5303,0.5316,0.5327,0.5344,0.535,0.5355,0.5366,0.5366,0.5378,0.5382,0.5395,0.5404,0.5399,0.5421,0.5421,0.5423,0.5415,0.5416,0.5416,0.5414,0.5404,0,0,0,0,0,0.528,0.529,0.5306,0.5316,0.5322,0.5335,0.5342,0.5348,0.5361,0.5366,0.5377,0.5389,0.5401,0.5409,0.5421,0.5435,0.5439,0.544,0.5441,0.5441,0.5442,0.5451,0.5452,0.5441,0.5441,0.5441,0,0,0.5279,0.5291,0.5296,0.5315,0.5324,0.5335,0.5339,0.535,0.5358,0.5367,0.5382,0.539,0.5405,0.5419,0.5426,0.5426,0.5446,0.5442,0.5441,0.5442,0.5452,0.5453,0.5454,0.5442,0.5442,0.5442,0,0,0.5282,0.5292,0.5301,0.5311,0.5326,0.5335,0.5338,0.5354,0.536,0.5375,0.5382,0.5393,0.5413,0.5424,0.5432,0.5441,0.5446,0.5445,0.5446,0.5455,0.5456,0.5456,0.5461,0.5462,0.5446,0.5446,0.5446,0,0.5279,0.5295,0.5306,0.5317,0.5325,0.5334,0.5345,0.5354,0.5372,0.5378,0.5378,0.5405,0.5416,0.5433,0.5436,0.5442,0.5446,0.5443,0.5455,0.5456,0.5456,0.5461,0.5462,0.5446,0.5446,0.5446,0.5446,0,0.5291,0.5303,0.5309,0.5326,0.5335,0.5346,0.5359,0.5367,0.5373,0.5382,0.5398,0.5411,0.5426,0.5431,0.5437,0.545,0.545,0.5452,0.5452,0.5457,0.5461,0.5463,0.5445,0.5445,0.5445,0.5446,0,0,0.5288,0.5313,0.5315,0.5323,0.5341,0.535,0.5362,0.5378,0.5385,0.5397,0.5408,0.5426,0.5429,0.5438,0.5446,0.5453,0.5461,0.5455,0.5456,0.5456,0.5478,0.5476,0.5477,0.5465,0.5465,0.5465,0.5477,0,0.5294,0.5315,0.5326,0.5343,0.5354,0.5364,0.5374,0.5387,0.5396,0.5408,0.5418,0.5431,0.5433,0.5439,0.5447,0.5459,0.5466,0.5458,0.5476,0.5476,0.5472,0.5479,0.5477,0.5487,0.5478,0.5478,0.5479,0,0.5304,0.5317,0.5335,0.5353,0.5358,0.5367,0.5383,0.5393,0.5408,0.5415,0.5426,0.5433,0.5447,0.5447,0.5467,0.5461,0.5469,0.5476,0.5477,0.5479,0.5478,0.5482,0.549,0.5492,0.5481,0.5481,0.5481,0,0.5301,0.5323,0.5337,0.5344,0.5365,0.5371,0.538,0.5395,0.5404,0.5418,0.5424,0.544,0.5448,0.546,0.5472,0.5471,0.5492,0.5492,0.5498,0.5498,0.5501,0.5501,0.5511,0.5506,0.5506,0.5506,0.5506,0,0.5306,0.5317,0.5336,0.5344,0.5357,0.537,0.5382,0.5392,0.5406,0.5417,0.5426,0.5437,0.5452,0.5465,0.5475,0.549,0.5494,0.55,0.5502,0.5499,0.5498,0.5504,0.5504,0.5507,0.5507,0.5507,0.5507,0,0.5305,0.5317,0.5333,0.5352,0.5357,0.5366,0.5383,0.5392,0.5402,0.5417,0.5421,0.5437,0.5453,0.5466,0.5487,0.5494,0.551,0.5513,0.5505,0.5506,0.5512,0.5511,0.5526,0.5529,0.5522,0.5522,0.5522,0,0.5307,0.5316,0.5336,0.5345,0.5354,0.5367,0.5376,0.539,0.5399,0.5418,0.5425,0.5442,0.5455,0.548,0.5495,0.5511,0.5514,0.5519,0.5517,0.5514,0.5515,0.5514,0.5516,0.5519,0.5519,0.5519,0.5519,0,0.5311,0.5317,0.533,0.5346,0.5358,0.5371,0.5384,0.5391,0.5407,0.5417,0.5434,0.5444,0.5466,0.5483,0.5501,0.5511,0.5518,0.5519,0.5522,0.5518,0.5514,0.5517,0.5505,0.5519,0.5519,0.5519,0.5519,0.5519,0.5312,0.5321,0.5337,0.5351,0.5363,0.5376,0.5386,0.5398,0.5411,0.543,0.5437,0.5454,0.5471,0.5496,0.5506,0.5521,0.5521,0.5525,0.5526,0.5526,0.5526,0.5511,0.5524,0.5524,0.5524,0.5524,0.5524,0,0.5317,0.5328,0.5341,0.536,0.5372,0.5378,0.5393,0.5403,0.5418,0.5433,0.5446,0.5466,0.5483,0.5499,0.5516,0.5525,0.5528,0.5529,0.5528,0.5531,0.5524,0.552,0.5526,0.5526,0.5526,0.5526,0.5526,0.5526,0.532,0.5336,0.5344,0.5366,0.5377,0.5393,0.5402,0.5414,0.5426,0.5448,0.5462,0.5472,0.5488,0.5507,0.5523,0.5527,0.5534,0.5533,0.5539,0.5532,0.5531,0.5531,0.5528,0.5535,0.5535,0.5545,0.5545,0.5545]},{"header":{"parameterUnit":"m.s-1","parameterCategory":1,"la1":30.2991,"la2":30.254,"lo1":-89.0895,"lo2":-89.0444,"dy":0.0017,"dx":0.0017,"nx":28,"ny":28,"refTime":"2024-03-09T09:00:00:Z","depth":0,"parameterNumber":3,"parameterNumberName":"V-component_of_WINDS"},"data":[0,0,0,0,0,0,0,0,0,0,0,0,0,0,0,0,0,0,0,0,0,0,0,0,0,0,0,0,0,0,0,0,0,0,0,0,0,0,0,0,0,0,0,0,0,0,0,0,0,0,0,0,0,0,0,0,0,0,-4.4899,-4.49,0,-4.4947,-4.4948,-4.4948,-4.4959,-4.4959,-4.4958,-4.4958,-4.5002,-4.5003,-4.5005,0,0,0,0,0,0,0,0,0,0,0,0,0,-4.4813,-4.4815,-4.4899,-4.49,-4.49,-4.4947,-4.4948,-4.4949,-4.4959,-4.4959,-4.4958,-4.4958,-4.5002,-4.5003,-4.5005,0,0,0,0,0,0,0,0,0,0,0,0,0,-4.4855,-4.4815,-4.4899,-4.4911,-4.4913,-4.4947,-4.4948,-4.4949,-4.4959,-4.4959,-4.4958,-4.4958,-4.5001,-4.5003,-4.5005,-4.5029,0,0,-4.5012,-4.5013,0,0,0,0,0,0,0,0,-4.4852,-4.4858,-4.4909,-4.4911,-4.4912,-4.4947,-4.4934,-4.4975,-4.4959,-4.4941,-4.4958,-4.4957,-4.4984,-4.4987,-4.4997,-4.5031,-4.5033,-4.5012,-4.5014,-4.5015,-4.5015,0,0,0,0,0,0,0,-4.4849,-4.4856,-4.4918,-4.491,-4.4912,-4.4914,-4.4919,-4.4942,-4.4964,-4.4943,-4.4944,-4.495,-4.4984,-4.4995,-4.4998,-4.5034,-4.5012,-4.5014,-4.5016,-4.5016,-4.5092,-4.5092,0,0,0,0,0,0,-4.4845,-4.4853,-4.4917,-4.492,-4.4881,-4.4915,-4.4921,-4.4936,-4.4964,-4.4968,-4.495,-4.495,-4.4992,-4.4996,-4.5,-4.5031,-4.5015,-4.5017,-4.5018,-4.5091,-4.5092,-4.5093,0,0,0,0,0,0,-4.4843,-4.4851,-4.4915,-4.4887,-4.4895,-4.4918,-4.4934,-4.4937,-4.4948,-4.497,-4.4974,-4.4957,-4.4991,-4.4997,-4.5023,-4.5033,-4.5018,-4.502,-4.509,-4.5091,-4.5092,-4.5093,0,0,0,0,0,0,-4.4841,-4.485,-4.486,-4.4887,-4.4897,-4.4937,-4.4935,-4.4939,-4.4952,-4.4953,-4.4977,-4.4981,-4.4991,-4.5019,-4.5025,-4.5036,-4.5021,-4.5089,-4.5091,-4.5092,-4.5092,-4.5094,-4.5096,0,0,0,0,0,-4.4838,-4.4856,-4.486,-4.4868,-4.491,-4.4938,-4.4943,-4.4957,-4.4953,-4.4963,-4.4978,-4.498,-4.5031,-4.5022,-4.5028,-4.504,-4.5089,-4.509,-4.5092,-4.5092,-4.5094,-4.5096,0,0,0,0,0,0,-4.4827,-4.486,-4.4864,-4.4893,-4.4913,-4.494,-4.4952,-4.4958,-4.4978,-4.4977,-4.4991,-4.4997,-4.5022,-4.5033,-4.5023,-4.5066,-4.506,-4.5063,-4.5057,-4.506,-4.5061,-4.5058,-4.5023,0,0,0,0,0,-4.4828,-4.485,-4.4877,-4.4899,-4.4909,-4.4929,-4.4942,-4.4951,-4.4972,-4.4979,-4.4996,-4.5014,-4.5035,-4.5048,-4.5067,-4.5094,-4.51,-4.5105,-4.5107,-4.5108,-4.5111,-4.5128,-4.5131,-4.5098,-4.5098,-4.5098,0,0,-4.483,-4.4851,-4.4863,-4.4898,-4.4914,-4.4936,-4.4936,-4.4958,-4.4974,-4.4982,-4.5009,-4.5021,-4.5043,-4.507,-4.5083,-4.508,-4.5121,-4.511,-4.5111,-4.5113,-4.5129,-4.5133,-4.5135,-4.5099,-4.5098,-4.5098,0,0,-4.4845,-4.4863,-4.4885,-4.4902,-4.4929,-4.4942,-4.4947,-4.4974,-4.4984,-4.5011,-4.5018,-4.5037,-4.5071,-4.5087,-4.51,-4.5125,-4.5128,-4.513,-4.5139,-4.5155,-4.5158,-4.516,-4.517,-4.5174,-4.5133,-4.5133,-4.5133,0,-4.4844,-4.4878,-4.4894,-4.4918,-4.4933,-4.4944,-4.4966,-4.4982,-4.5012,-4.5022,-4.502,-4.5065,-4.508,-4.5112,-4.5119,-4.5128,-4.5135,-4.5128,-4.5157,-4.5159,-4.5161,-4.5171,-4.5175,-4.5133,-4.5133,-4.5133,-4.5133,0,-4.4876,-4.49,-4.4914,-4.4947,-4.4964,-4.4986,-4.5005,-4.502,-4.5028,-4.5042,-4.507,-4.509,-4.5115,-4.5123,-4.5129,-4.5156,-4.5154,-4.5154,-4.5148,-4.5165,-4.5174,-4.5178,-4.5133,-4.5133,-4.5133,-4.5133,0,0,-4.4883,-4.4928,-4.4933,-4.4949,-4.498,-4.4998,-4.5021,-4.5048,-4.5062,-4.5082,-4.5103,-4.5133,-4.5134,-4.5148,-4.5157,-4.5171,-4.5192,-4.5169,-4.517,-4.5174,-4.5224,-4.5225,-4.5229,-4.5195,-4.5195,-4.5196,-4.5223,0,-4.4903,-4.4948,-4.4964,-4.5,-4.5023,-4.5035,-4.5056,-4.5077,-4.5091,-4.5111,-4.5126,-4.5148,-4.5147,-4.5156,-4.5171,-4.5186,-4.5202,-4.5184,-4.5213,-4.5214,-4.5208,-4.5234,-4.5234,-4.5259,-4.5227,-4.5227,-4.5228,0,-4.4931,-4.4957,-4.4996,-4.5027,-4.5037,-4.5055,-4.5083,-4.5103,-4.5127,-4.5136,-4.5154,-4.5163,-4.5188,-4.5181,-4.5215,-4.5203,-4.5216,-4.5225,-4.5227,-4.523,-4.5222,-4.5239,-4.5267,-4.5271,-4.5233,-4.5233,-4.5233,0,-4.4935,-4.4978,-4.5008,-4.5021,-4.5057,-4.5071,-4.5086,-4.511,-4.5126,-4.515,-4.516,-4.5185,-4.5199,-4.5218,-4.5233,-4.5227,-4.5267,-4.5261,-4.5275,-4.5275,-4.5283,-4.5282,-4.5314,-4.529,-4.529,-4.529,-4.529,0,-4.4955,-4.4979,-4.501,-4.5028,-4.5056,-4.5075,-4.5101,-4.5117,-4.5139,-4.516,-4.5171,-4.519,-4.5209,-4.5231,-4.5242,-4.527,-4.5276,-4.5284,-4.5287,-4.5283,-4.5282,-4.5292,-4.5291,-4.5291,-4.5291,-4.529,-4.529,0,-4.4963,-4.4985,-4.5019,-4.5052,-4.5061,-4.508,-4.5108,-4.5126,-4.5142,-4.5168,-4.5176,-4.52,-4.5226,-4.5244,-4.5276,-4.5284,-4.5315,-4.5317,-4.5307,-4.5309,-4.5323,-4.5322,-4.5362,-4.5369,-4.534,-4.534,-4.534,0,-4.4975,-4.4994,-4.5031,-4.5048,-4.5064,-4.5089,-4.5107,-4.5127,-4.5145,-4.5176,-4.519,-4.5218,-4.5241,-4.5283,-4.5302,-4.5328,-4.5331,-4.5344,-4.5335,-4.5332,-4.5333,-4.5332,-4.5334,-4.5345,-4.5345,-4.5345,-4.5346,0,-4.4994,-4.5005,-4.5031,-4.5062,-4.5083,-4.5108,-4.5132,-4.5144,-4.5168,-4.5188,-4.5216,-4.5235,-4.5271,-4.5298,-4.5326,-4.5341,-4.5347,-4.5349,-4.5354,-4.535,-4.5345,-4.5349,-4.5312,-4.5347,-4.5347,-4.5347,-4.5347,-4.5347,-4.5005,-4.5023,-4.5054,-4.5083,-4.5104,-4.5128,-4.5147,-4.5167,-4.5192,-4.5224,-4.5234,-4.5265,-4.529,-4.5329,-4.5345,-4.5368,-4.5367,-4.5373,-4.5375,-4.5377,-4.5378,-4.5341,-4.5373,-4.5373,-4.5373,-4.5373,-4.5373,0,-4.5025,-4.5046,-4.5073,-4.5109,-4.5133,-4.514,-4.5168,-4.5186,-4.5214,-4.5238,-4.5262,-4.5296,-4.5324,-4.5347,-4.5375,-4.539,-4.5394,-4.5397,-4.5396,-4.54,-4.5376,-4.537,-4.5393,-4.5393,-4.5393,-4.5393,-4.5393,-4.5393,-4.5039,-4.5072,-4.5087,-4.513,-4.5151,-4.5183,-4.5198,-4.522,-4.524,-4.5279,-4.5303,-4.5319,-4.5343,-4.5374,-4.54,-4.5406,-4.5416,-4.5419,-4.5425,-4.5403,-4.5401,-4.5399,-4.5393,-4.542,-4.542,-4.5447,-4.5447,-4.5447]}]]